Precipitable_Water
1.17 1.18 1.16 1.15 1.12 1.09 1.05 1.01 0.98 0.93 0.85 0.77 0.70 0.60 0.50 0.45 0.43 0.42 0.39 0.36 0.32 0.30 0.29 0.28 0.26 0.25 0.24 0.23 0.23 0.24 0.24 0.24 0.22 0.24 0.26 0.27 0.27 0.26 0.26 0.25 0.22 0.21 0.22
1.16 1.12 1.10 1.07 1.07 1.03 0.98 0.95 0.91 0.83 0.79 0.67 0.55 0.48 0.44 0.44 0.42 0.39 0.35 0.33 0.30 0.28 0.27 0.26 0.25 0.24 0.23 0.23 0.24 0.25 0.25 0.26 0.25 0.23 0.26 0.26 0.26 0.26 0.24 0.21 0.21 0.22 0.20
1.11 1.05 1.04 0.99 0.99 0.97 0.92 0.90 0.83 0.74 0.62 0.54 0.47 0.45 0.45 0.42 0.38 0.36 0.33 0.29 0.28 0.27 0.26 0.25 0.23 0.23 0.23 0.24 0.25 0.25 0.26 0.26 0.26 0.25 0.25 0.27 0.25 0.23 0.20 0.19 0.19 0.16 0.15
1.04 1.01 0.97 0.95 0.94 0.92 0.88 0.81 0.70 0.59 0.50 0.46 0.47 0.44 0.41 0.39 0.36 0.32 0.30 0.29 0.28 0.28 0.26 0.25 0.24 0.24 0.25 0.26 0.25 0.25 0.25 0.26 0.27 0.26 0.25 0.23 0.21 0.19 0.17 0.15 0.12 0.13 0.12
0.98 0.96 0.93 0.93 0.89 0.83 0.75 0.66 0.55 0.49 0.48 0.46 0.43 0.41 0.40 0.36 0.34 0.31 0.29 0.29 0.28 0.27 0.26 0.24 0.25 0.27 0.27 0.27 0.26 0.26 0.26 0.27 0.26 0.24 0.21 0.19 0.16 0.14 0.13 0.12 0.11 0.11 0.11
0.93 0.90 0.89 0.86 0.78 0.67 0.57 0.51 0.49 0.46 0.46 0.45 0.43 0.40 0.39 0.36 0.33 0.31 0.30 0.28 0.27 0.26 0.24 0.25 0.28 0.29 0.29 0.29 0.28 0.29 0.30 0.27 0.23 0.19 0.17 0.14 0.13 0.12 0.12 0.11 0.11 0.09 0.07
0.87 0.85 0.83 0.75 0.62 0.53 0.47 0.45 0.45 0.46 0.46 0.43 0.42 0.40 0.39 0.38 0.36 0.33 0.31 0.29 0.27 0.26 0.26 0.28 0.28 0.29 0.30 0.29 0.28 0.28 0.28 0.23 0.20 0.17 0.14 0.13 0.12 0.12 0.11 0.10 0.09 0.08 0.07
0.81 0.78 0.67 0.51 0.44 0.44 0.43 0.43 0.44 0.44 0.42 0.42 0.40 0.39 0.37 0.35 0.36 0.33 0.31 0.29 0.27 0.28 0.29 0.30 0.30 0.30 0.29 0.28 0.26 0.23 0.20 0.17 0.16 0.15 0.14 0.13 0.12 0.11 0.10 0.09 0.08 0.07 0.06
0.70 0.50 0.46 0.42 0.39 0.38 0.38 0.40 0.41 0.40 0.42 0.41 0.39 0.36 0.34 0.31 0.30 0.30 0.28 0.27 0.28 0.30 0.31 0.31 0.31 0.29 0.27 0.25 0.21 0.17 0.16 0.15 0.15 0.14 0.13 0.12 0.11 0.10 0.09 0.08 0.06 0.05 0.04
0.48 0.44 0.40 0.38 0.37 0.37 0.37 0.39 0.39 0.43 0.43 0.39 0.38 0.35 0.33 0.29 0.29 0.27 0.28 0.30 0.30 0.31 0.31 0.31 0.29 0.26 0.22 0.21 0.17 0.15 0.12 0.12 0.12 0.10 0.09 0.08 0.08 0.07 0.07 0.07 0.06 0.05 0.05
0.46 0.40 0.37 0.35 0.34 0.34 0.37 0.41 0.42 0.43 0.40 0.39 0.35 0.31 0.29 0.28 0.26 0.28 0.31 0.32 0.32 0.31 0.29 0.26 0.22 0.21 0.18 0.17 0.16 0.13 0.12 0.12 0.09 0.08 0.07 0.07 0.06 0.06 0.06 0.06 0.06 0.06 0.05
0.41 0.37 0.35 0.34 0.35 0.39 0.43 0.45 0.45 0.43 0.39 0.34 0.29 0.27 0.26 0.26 0.28 0.31 0.33 0.34 0.32 0.28 0.23 0.20 0.18 0.17 0.16 0.14 0.13 0.12 0.11 0.09 0.07 0.06 0.06 0.05 0.05 0.05 0.05 0.06 0.06 0.06 0.07
0.45 0.39 0.37 0.37 0.42 0.46 0.45 0.49 0.45 0.39 0.31 0.27 0.26 0.24 0.26 0.30 0.34 0.35 0.33 0.31 0.26 0.21 0.19 0.17 0.15 0.14 0.13 0.11 0.10 0.10 0.08 0.07 0.06 0.05 0.04 0.04 0.05 0.05 0.06 0.06 0.06 0.06 0.06
0.45 0.43 0.43 0.42 0.45 0.45 0.47 0.48 0.38 0.28 0.25 0.23 0.25 0.28 0.32 0.34 0.33 0.32 0.28 0.23 0.20 0.17 0.15 0.13 0.13 0.11 0.10 0.10 0.08 0.08 0.07 0.06 0.05 0.04 0.04 0.05 0.05 0.05 0.05 0.06 0.05 0.05 0.05
0.48 0.49 0.48 0.45 0.47 0.47 0.44 0.33 0.25 0.24 0.26 0.28 0.32 0.33 0.33 0.30 0.27 0.24 0.20 0.16 0.14 0.13 0.11 0.11 0.09 0.08 0.08 0.07 0.07 0.06 0.06 0.05 0.04 0.05 0.05 0.04 0.05 0.05 0.05 0.06 0.06 0.05 0.05
0.50 0.47 0.47 0.45 0.43 0.38 0.27 0.24 0.26 0.29 0.32 0.35 0.35 0.33 0.29 0.25 0.21 0.17 0.16 0.14 0.13 0.12 0.09 0.08 0.07 0.07 0.06 0.06 0.05 0.05 0.05 0.04 0.04 0.04 0.04 0.04 0.05 0.05 0.05 0.05 0.06 0.05 0.05
0.45 0.43 0.42 0.37 0.29 0.23 0.23 0.26 0.27 0.33 0.36 0.35 0.31 0.26 0.21 0.18 0.15 0.14 0.13 0.12 0.10 0.09 0.07 0.07 0.06 0.06 0.05 0.05 0.05 0.04 0.04 0.04 0.04 0.04 0.04 0.04 0.05 0.05 0.05 0.05 0.05 0.05 0.05
0.41 0.37 0.33 0.25 0.24 0.26 0.28 0.29 0.32 0.31 0.28 0.25 0.21 0.17 0.15 0.14 0.13 0.12 0.11 0.09 0.08 0.08 0.07 0.06 0.05 0.05 0.05 0.04 0.04 0.04 0.04 0.04 0.04 0.04 0.04 0.04 0.05 0.05 0.05 0.05 0.05 0.05 0.05
0.29 0.26 0.25 0.26 0.28 0.28 0.29 0.31 0.30 0.26 0.21 0.16 0.15 0.13 0.11 0.10 0.10 0.09 0.09 0.07 0.06 0.06 0.06 0.05 0.05 0.05 0.04 0.04 0.04 0.04 0.04 0.04 0.04 0.04 0.04 0.04 0.05 0.05 0.05 0.05 0.05 0.05 0.05
0.26 0.26 0.27 0.27 0.28 0.28 0.29 0.28 0.23 0.18 0.15 0.12 0.10 0.09 0.09 0.09 0.08 0.07 0.07 0.07 0.06 0.05 0.05 0.05 0.04 0.04 0.04 0.04 0.04 0.04 0.03 0.04 0.04 0.04 0.04 0.04 0.05 0.05 0.05 0.05 0.05 0.05 0.05
0.26 0.27 0.27 0.28 0.28 0.28 0.25 0.20 0.17 0.13 0.10 0.09 0.09 0.09 0.09 0.08 0.07 0.07 0.06 0.06 0.05 0.05 0.05 0.04 0.04 0.04 0.04 0.04 0.04 0.03 0.03 0.04 0.04 0.04 0.04 0.04 0.04 0.04 0.04 0.05 0.05 0.05 0.05
0.27 0.27 0.28 0.27 0.26 0.22 0.18 0.14 0.11 0.10 0.09 0.08 0.08 0.08 0.08 0.07 0.07 0.06 0.06 0.05 0.05 0.05 0.05 0.04 0.04 0.04 0.04 0.03 0.03 0.03 0.03 0.03 0.03 0.04 0.04 0.04 0.04 0.04 0.04 0.04 0.05 0.05 0.05
0.27 0.26 0.26 0.23 0.20 0.15 0.12 0.10 0.09 0.09 0.08 0.08 0.08 0.07 0.07 0.07 0.06 0.06 0.05 0.05 0.05 0.05 0.05 0.05 0.04 0.04 0.04 0.04 0.04 0.04 0.03 0.03 0.03 0.04 0.04 0.04 0.04 0.04 0.04 0.04 0.05 0.05 0.05
0.26 0.24 0.21 0.16 0.13 0.11 0.09 0.09 0.09 0.08 0.08 0.07 0.07 0.07 0.07 0.06 0.06 0.06 0.05 0.05 0.05 0.05 0.05 0.05 0.05 0.04 0.04 0.04 0.05 0.05 0.05 0.04 0.04 0.04 0.04 0.04 0.04 0.04 0.04 0.05 0.05 0.06 0.06
0.23 0.18 0.14 0.11 0.10 0.09 0.09 0.09 0.08 0.08 0.07 0.07 0.07 0.07 0.07 0.06 0.06 0.06 0.05 0.05 0.05 0.05 0.04 0.05 0.05 0.05 0.05 0.05 0.05 0.05 0.05 0.05 0.05 0.05 0.05 0.05 0.04 0.04 0.05 0.06 0.06 0.06 0.06
0.16 0.13 0.11 0.10 0.09 0.09 0.09 0.08 0.08 0.08 0.07 0.07 0.07 0.07 0.07 0.06 0.06 0.06 0.05 0.05 0.05 0.04 0.04 0.05 0.05 0.05 0.05 0.05 0.05 0.05 0.05 0.05 0.06 0.06 0.06 0.06 0.06 0.06 0.06 0.06 0.06 0.07 0.07
Wind_Speed
33 32 32 29 27 26 23 24 22 20 18 16 15 13 12 13 15 16 17 18 20 22 24 26 28 30 32 34 37 39 41 43 45 48 48 48 49 50 50 50 51 51 50
33 32 30 27 27 23 23 20 20 17 15 13 13 12 13 14 15 16 18 20 22 24 26 28 30 32 35 37 40 42 43 45 47 49 49 50 50 51 51 51 52 51 52
29 27 27 25 25 22 20 17 16 15 13 12 12 13 13 14 16 18 20 22 24 26 28 30 33 35 38 40 42 44 46 47 48 49 51 50 51 51 52 52 52 54 56
28 25 25 23 21 18 17 15 14 13 12 12 12 12 13 15 18 21 22 24 26 28 31 33 36 38 40 42 44 46 47 48 49 50 50 51 52 52 53 55 56 58 60
25 25 22 20 19 16 15 14 12 12 11 10 11 13 16 18 20 22 24 26 29 31 34 36 38 40 42 44 45 47 48 49 49 50 51 52 53 53 56 58 61 63 64
22 20 18 18 16 14 13 11 10 10 10 12 14 16 18 20 22 24 26 29 31 34 36 38 40 42 43 46 47 48 49 48 49 50 51 53 55 57 60 62 64 66 67
19 17 17 16 14 12 11 10 10 11 12 14 16 17 20 22 24 26 29 32 34 35 37 40 41 44 46 47 48 48 46 48 49 51 54 56 59 61 64 65 66 67 68
17 15 14 12 11 10 9 9 10 11 13 15 17 19 22 24 26 29 32 33 35 37 39 42 44 45 46 47 48 46 47 49 51 53 56 59 61 63 63 64 65 66 66
13 12 11 10 9 9 9 8 10 13 15 17 19 22 24 26 28 31 33 34 36 39 42 43 44 45 45 46 45 47 50 53 54 56 59 61 61 61 61 62 61 60 60
10 9 8 9 8 7 8 10 12 14 17 19 21 24 25 27 30 32 34 36 39 41 42 43 43 43 44 45 47 50 53 55 57 59 60 60 59 58 57 55 55 55 55
8 7 5 5 6 7 9 12 14 17 19 21 22 25 27 29 31 33 36 38 40 41 41 42 42 44 46 48 51 52 55 57 58 58 58 57 55 54 53 51 51 50 51
4 3 4 5 7 9 11 14 17 19 20 22 24 26 28 31 33 35 38 39 39 40 41 42 43 45 48 50 52 55 56 57 56 56 54 52 51 49 49 49 48 48 49
3 4 5 7 9 11 14 17 18 19 21 23 25 27 30 32 35 37 37 37 38 39 41 43 46 48 50 52 54 55 55 55 54 52 50 48 47 46 47 46 46 47 48
4 6 8 10 12 13 15 17 18 21 23 25 27 29 32 34 34 35 36 37 39 40 43 45 47 50 51 53 54 54 54 53 50 48 46 44 44 43 44 44 45 46 48
6 7 9 10 12 14 16 19 21 23 24 26 29 31 32 32 32 35 37 38 40 42 45 47 49 51 52 53 53 53 52 49 47 44 43 42 41 42 42 43 45 47 47
6 7 9 11 14 16 17 19 21 23 26 27 29 29 29 31 33 36 37 40 43 46 47 49 51 52 53 54 53 52 49 46 43 42 41 40 40 41 42 43 45 46 48
7 9 11 13 15 17 19 20 23 25 26 27 27 27 30 32 35 37 39 42 45 47 49 51 52 53 54 53 53 50 46 43 42 40 39 39 39 40 42 43 45 46 47
9 11 13 15 17 18 21 22 24 24 24 25 27 29 32 34 36 39 41 44 46 48 50 52 53 54 54 53 51 47 44 42 40 39 39 38 39 40 42 44 45 46 47
11 13 15 17 18 19 20 21 22 22 24 26 29 31 34 36 38 40 43 45 48 50 52 53 54 54 53 52 49 45 42 40 40 39 38 37 38 40 42 44 45 46 47
13 15 16 17 17 18 19 20 21 23 25 28 30 32 35 37 39 42 44 47 49 51 52 54 54 54 53 50 47 43 41 40 39 38 37 37 38 40 42 44 45 45 46
14 15 15 16 17 18 18 20 22 25 27 29 32 34 36 38 41 43 46 48 51 52 54 55 55 54 52 49 46 44 41 39 38 37 36 37 38 40 42 43 45 45 46
14 14 15 15 16 17 19 22 24 26 29 31 33 35 37 40 42 45 48 50 52 54 56 56 56 55 52 49 47 45 41 39 37 36 36 37 39 41 42 43 44 44 44
13 14 14 16 17 19 21 24 26 28 30 32 34 36 39 42 44 47 50 52 54 56 57 57 57 55 52 49 47 44 40 38 36 36 36 37 39 41 42 43 44 44 43
13 14 15 16 19 21 23 25 27 30 31 33 36 38 41 43 46 49 51 54 56 58 59 59 57 54 52 49 46 42 39 37 35 35 36 37 39 41 42 42 43 43 42
14 15 16 18 20 23 25 27 29 31 33 35 38 40 43 45 48 50 53 56 58 60 60 59 56 53 51 48 44 40 37 34 33 34 36 38 39 41 41 42 42 41 41
15 16 17 20 22 24 26 28 30 33 35 37 40 42 45 47 50 53 55 58 60 61 61 58 55 53 50 46 41 37 34 32 33 34 35 38 39 40 40 41 41 40 39
Wind_Direction
226 229 231 228 228 223 229 230 237 242 245 244 247 250 259 269 281 290 296 300 302 305 308 309 309 309 309 310 310 310 310 310 309 309 309 310 309 309 309 309 308 308 307
227 225 222 222 216 223 227 234 233 236 233 242 245 256 269 279 289 295 299 301 305 309 308 308 309 309 310 311 311 311 311 311 310 310 310 310 309 309 309 309 309 308 308
218 216 216 215 217 228 228 226 224 230 235 240 251 266 279 286 293 297 302 306 308 307 308 309 310 311 311 312 312 313 312 312 312 310 310 310 310 310 310 309 309 308 308
209 210 210 214 220 223 218 219 224 228 237 246 263 273 284 290 297 302 306 307 307 308 309 310 311 311 312 313 313 314 314 313 312 312 311 311 311 311 310 310 309 308 307
197 202 210 218 212 211 211 215 226 232 246 256 271 281 289 296 302 305 306 306 308 309 310 311 312 312 312 313 314 314 314 313 313 313 312 312 312 312 311 310 309 308 308
199 201 198 195 197 203 211 218 228 238 256 269 280 290 297 302 304 305 306 308 309 310 311 311 312 313 313 314 314 314 313 314 314 314 313 313 313 312 311 311 310 310 309
185 186 186 188 197 208 211 220 238 256 268 280 292 297 301 302 304 306 308 309 310 311 312 313 314 314 314 315 315 316 316 316 315 315 314 314 313 313 312 312 311 311 310
169 174 181 189 195 201 217 238 257 272 282 291 297 300 302 304 305 307 309 310 311 313 314 314 315 315 315 316 316 316 316 316 316 315 315 314 314 314 313 313 312 312 312
169 169 178 189 203 219 238 263 276 284 293 298 300 302 304 305 307 309 311 312 313 314 314 315 315 316 317 318 318 317 317 317 317 316 316 315 315 315 315 315 315 316 316
168 176 191 207 223 244 265 279 288 294 297 299 301 304 306 309 310 312 313 313 314 315 316 316 317 317 318 319 319 318 318 318 318 318 317 317 317 317 318 318 319 319 319
171 185 201 226 256 272 281 290 293 298 301 303 305 307 309 311 312 314 315 315 316 317 317 318 319 318 319 320 320 319 319 319 319 319 319 319 319 320 321 321 322 323 323
184 206 247 264 275 284 292 299 301 303 304 305 308 309 311 313 314 315 316 317 318 318 319 319 319 320 320 320 320 320 320 320 320 320 320 321 321 322 323 324 324 324 324
216 262 272 282 283 288 293 300 302 304 306 308 309 312 313 315 316 317 318 319 320 319 320 320 320 321 321 321 321 321 321 321 321 321 322 322 323 324 325 326 326 327 327
267 280 277 285 291 296 301 303 305 307 309 311 313 314 315 316 318 319 320 321 321 321 322 321 321 321 321 321 321 321 322 322 322 322 322 323 324 326 327 328 329 329 329
280 285 289 293 299 302 305 307 309 311 312 313 314 316 317 318 320 321 322 323 323 323 323 322 322 322 322 322 322 322 322 322 322 322 323 324 325 326 327 329 330 331 330
286 294 297 299 302 305 307 311 314 314 315 317 318 318 319 321 322 323 323 324 323 324 323 323 323 323 322 322 322 322 322 322 322 323 323 323 325 326 328 329 330 330 331
296 301 304 305 307 309 311 311 313 316 317 319 321 322 322 322 323 324 324 324 324 324 324 324 324 323 323 323 322 322 321 321 321 322 322 323 324 326 327 329 329 330 331
307 309 309 310 310 311 311 312 314 315 317 320 322 323 323 324 324 324 324 325 325 325 325 324 324 324 323 322 322 320 320 320 320 321 321 322 324 325 327 328 329 329 330
313 313 313 313 313 313 315 317 318 319 321 321 322 322 323 324 324 324 325 326 325 325 325 325 325 324 323 322 321 319 318 318 319 319 320 321 323 325 327 328 329 329 330
318 316 315 315 315 316 318 319 321 321 322 322 323 323 324 324 325 325 326 326 326 326 326 326 325 324 323 321 320 317 316 316 316 318 318 320 322 324 326 328 330 330 330
320 319 318 318 319 320 321 321 321 321 322 323 323 323 324 325 326 326 327 327 327 327 327 326 326 324 323 321 319 316 313 313 313 315 317 319 321 323 325 327 328 329 330
323 322 321 321 321 322 322 322 322 323 323 323 324 324 325 326 327 327 328 328 328 328 327 327 326 324 322 320 317 315 312 309 310 313 315 318 321 323 324 326 328 328 329
324 323 323 322 322 322 322 323 323 323 323 324 325 325 326 327 327 328 328 329 329 328 328 327 326 324 322 320 318 314 311 308 308 310 313 316 319 322 324 326 327 328 328
323 323 322 320 320 321 322 323 323 324 325 325 325 325 326 327 327 328 328 329 329 329 328 327 325 324 323 321 319 315 311 308 306 308 311 314 317 320 322 324 326 327 328
320 320 319 319 320 321 322 323 324 325 325 325 325 326 326 327 328 328 329 329 329 329 328 327 326 324 323 321 319 316 313 310 307 308 311 313 316 318 321 323 325 326 327
316 317 317 318 319 321 322 323 324 324 325 325 326 326 327 327 328 328 329 329 329 329 329 327 325 323 322 320 318 316 314 312 310 311 312 314 317 318 320 321 323 324 325